| time (UTC) | temp C | wind direction | speed KPH | gust KPH | rain 1hr cm | rain 24hr cm | rain mn cm | humidity % | barometer mb |
| 20260508182404 | 22 | 237 | 4.8 | 9.7 | 0.00 | 0.00 | 0.00 | 29 | 1015.1 |
| 20260508181405 | 21 | 27 | 1.6 | 3.2 | 0.00 | 0.00 | 0.00 | 36 | 1015.1 |
| 20260508180904 | 21 | 255 | 6.4 | 11.3 | 0.00 | 0.00 | 0.00 | 29 | 1015.1 |
| 20260508180403 | 21 | 98 | 1.6 | 11.3 | 0.00 | 0.00 | 0.00 | 28 | 1015.2 |
| 20260508175904 | 21 | 78 | 1.6 | 4.8 | 0.00 | 0.00 | 0.00 | 35 | 1015.6 |
| 20260508174904 | 21 | 97 | 4.8 | 9.7 | 0.00 | 0.00 | 0.00 | 29 | 1015.6 |
| 20260508174404 | 21 | 222 | 3.2 | 9.7 | 0.00 | 0.00 | 0.00 | 27 | 1015.6 |
| 20260508173903 | 21 | 114 | 4.8 | 9.7 | 0.00 | 0.00 | 0.00 | 31 | 1015.6 |
| 20260508173403 | 21 | 135 | 8.0 | 11.3 | 0.00 | 0.00 | 0.00 | 32 | 1015.6 |
| 20260508172905 | 21 | 194 | 4.8 | 11.3 | 0.00 | 0.00 | 0.00 | 34 | 1015.7 |
| 20260508172404 | 21 | 248 | 4.8 | 8.0 | 0.00 | 0.00 | 0.00 | 34 | 1015.7 |
| 20260508171903 | 21 | 166 | 3.2 | 9.7 | 0.00 | 0.00 | 0.00 | 34 | 1015.9 |
| 20260508171405 | 20 | 26 | 0.0 | 4.8 | 0.00 | 0.00 | 0.00 | 38 | 1015.9 |
| 20260508170904 | 20 | 255 | 3.2 | 11.3 | 0.00 | 0.00 | 0.00 | 35 | 1015.9 |
| 20260508165905 | 20 | 100 | 4.8 | 8.0 | 0.00 | 0.00 | 0.00 | 34 | 1016.6 |
| 20260508165404 | 20 | 111 | 3.2 | 9.7 | 0.00 | 0.00 | 0.00 | 38 | 1016.6 |
| 20260508164903 | 20 | 257 | 4.8 | 9.7 | 0.00 | 0.00 | 0.00 | 36 | 1016.6 |
| 20260508164405 | 20 | 104 | 3.2 | 9.7 | 0.00 | 0.00 | 0.00 | 37 | 1016.6 |
| 20260508163903 | 20 | 104 | 1.6 | 9.7 | 0.00 | 0.00 | 0.00 | 41 | 1016.6 |
| 20260508163403 | 20 | 211 | 4.8 | 9.7 | 0.00 | 0.00 | 0.00 | 39 | 1016.6 |
| 20260508162905 | 20 | 123 | 6.4 | 11.3 | 0.00 | 0.00 | 0.00 | 38 | 1016.9 |
| 20260508162404 | 20 | 227 | 3.2 | 4.8 | 0.00 | 0.00 | 0.00 | 37 | 1016.9 |
| 20260508161405 | 19 | 150 | 3.2 | 8.0 | 0.00 | 0.00 | 0.00 | 41 | 1017.2 |
| 20260508160904 | 19 | 144 | 3.2 | 11.3 | 0.00 | 0.00 | 0.00 | 38 | 1017.2 |
| 20260508160404 | 19 | 233 | 3.2 | 8.0 | 0.00 | 0.00 | 0.00 | 41 | 1017.2 |
| 20260508155905 | 19 | 267 | 3.2 | 8.0 | 0.00 | 0.00 | 0.00 | 39 | 1017.3 |
| 20260508155404 | 19 | 104 | 3.2 | 9.7 | 0.00 | 0.00 | 0.00 | 42 | 1017.3 |
| 20260508154904 | 18 | 38 | 1.6 | 9.7 | 0.00 | 0.00 | 0.00 | 43 | 1017.3 |
| 20260508154405 | 18 | 232 | 4.8 | 9.7 | 0.00 | 0.00 | 0.00 | 40 | 1017.3 |
| 20260508153904 | 18 | 222 | 4.8 | 9.7 | 0.00 | 0.00 | 0.00 | 43 | 1017.3 |
| 20260508153404 | 17 | 265 | 4.8 | 11.3 | 0.00 | 0.00 | 0.00 | 41 | 1017.3 |
| 20260508152905 | 17 | 244 | 4.8 | 11.3 | 0.00 | 0.00 | 0.00 | 42 | 1017.7 |
| 20260508152404 | 18 | 252 | 3.2 | 12.9 | 0.00 | 0.00 | 0.00 | 45 | 1017.7 |
| 20260508151904 | 17 | 170 | 1.6 | 8.0 | 0.00 | 0.00 | 0.00 | 46 | 1017.7 |
| 20260508150904 | 17 | 255 | 3.2 | 9.7 | 0.00 | 0.00 | 0.00 | 51 | 1017.7 |
| 20260508150404 | 17 | 144 | 1.6 | 4.8 | 0.00 | 0.00 | 0.00 | 52 | 1017.7 |
| 20260508145907 | 17 | 210 | 4.8 | 9.7 | 0.00 | 0.00 | 0.00 | 51 | 1017.7 |
| 20260508145404 | 17 | 238 | 4.8 | 8.0 | 0.00 | 0.00 | 0.00 | 48 | 1017.7 |
| 20260508144403 | 17 | 116 | 4.8 | 4.8 | 0.00 | 0.00 | 0.00 | 53 | 1017.8 |
| 20260508143905 | 17 | 98 | 3.2 | 4.8 | 0.00 | 0.00 | 0.00 | 57 | 1017.6 |
| 20260508142904 | 17 | 102 | 1.6 | 4.8 | 0.00 | 0.00 | 0.00 | 61 | 1017.7 |
| 20260508142405 | 16 | 240 | 1.6 | 4.8 | 0.00 | 0.00 | 0.00 | 57 | 1017.7 |
| 20260508141904 | 17 | 91 | 4.8 | 8.0 | 0.00 | 0.00 | 0.00 | 57 | 1017.8 |
| 20260508141404 | 17 | 64 | 1.6 | 4.8 | 0.00 | 0.00 | 0.00 | 58 | 1017.8 |
| 20260508140905 | 16 | 39 | 1.6 | 3.2 | 0.00 | 0.00 | 0.00 | 60 | 1017.8 |
| 20260508140403 | 16 | 84 | 1.6 | 4.8 | 0.00 | 0.00 | 0.00 | 59 | 1017.8 |
| 20260508135903 | 16 | 93 | 1.6 | 4.8 | 0.00 | 0.00 | 0.00 | 63 | 1017.8 |
| 20260508135404 | 16 | 132 | 3.2 | 4.8 | 0.00 | 0.00 | 0.00 | 64 | 1017.8 |
| 20260508134404 | 16 | 97 | 1.6 | 4.8 | 0.00 | 0.00 | 0.00 | 64 | 1017.8 |
| 20260508133905 | 16 | 110 | 0.0 | 0.0 | 0.00 | 0.00 | 0.00 | 64 | 1017.8 |
| 20260508133404 | 15 | 110 | 0.0 | 0.0 | 0.00 | 0.00 | 0.00 | 67 | 1017.6 |
| 20260508132904 | 15 | 110 | 0.0 | 0.0 | 0.00 | 0.00 | 0.00 | 68 | 1017.6 |
| 20260508132405 | 15 | 110 | 0.0 | 0.0 | 0.00 | 0.00 | 0.00 | 66 | 1017.6 |
| 20260508131904 | 14 | 110 | 1.6 | 3.2 | 0.00 | 0.00 | 0.00 | 67 | 1017.6 |
| 20260508131404 | 13 | 110 | 0.0 | 1.6 | 0.00 | 0.00 | 0.00 | 70 | 1017.9 |
| 20260508130404 | 12 | 110 | 1.6 | 3.2 | 0.00 | 0.00 | 0.00 | 73 | 1017.9 |
| 20260508125903 | 11 | 110 | 1.6 | 3.2 | 0.00 | 0.00 | 0.00 | 74 | 1017.9 |
| 20260508125405 | 11 | 111 | 1.6 | 3.2 | 0.00 | 0.00 | 0.00 | 78 | 1017.9 |
| 20260508124904 | 10 | 273 | 1.6 | 1.6 | 0.00 | 0.00 | 0.00 | 80 | 1017.9 |
| 20260508124404 | 10 | 273 | 1.6 | 3.2 | 0.00 | 0.00 | 0.00 | 83 | 1017.9 |
| 20260508123904 | 10 | 273 | 1.6 | 3.2 | 0.00 | 0.00 | 0.00 | 86 | 1017.9 |
| 20260508123405 | 10 | 273 | 0.0 | 3.2 | 0.00 | 0.00 | 0.00 | 87 | 1017.9 |
| 20260508122904 | 9 | 273 | 0.0 | 0.0 | 0.00 | 0.00 | 0.00 | 88 | 1017.6 |
| 20260508122404 | 9 | 273 | 0.0 | 0.0 | 0.00 | 0.00 | 0.00 | 88 | 1017.6 |
| 20260508121405 | 8 | 273 | 0.0 | 0.0 | 0.00 | 0.00 | 0.00 | 88 | 1017.4 |
| 20260508120904 | 8 | 273 | 0.0 | 1.6 | 0.00 | 0.00 | 0.00 | 88 | 1017.4 |
| 20260508120404 | 8 | 273 | 0.0 | 1.6 | 0.00 | 0.00 | 0.00 | 88 | 1017.4 |
| 20260508115905 | 8 | 273 | 0.0 | 1.6 | 0.00 | 0.00 | 0.00 | 88 | 1016.7 |
| 20260508115403 | 8 | 273 | 0.0 | 0.0 | 0.00 | 0.03 | 0.00 | 87 | 1016.7 |
| 20260508114904 | 7 | 273 | 0.0 | 0.0 | 0.00 | 0.03 | 0.00 | 87 | 1016.7 |
| 20260508114405 | 7 | 273 | 0.0 | 0.0 | 0.00 | 0.03 | 0.00 | 87 | 1016.7 |
| 20260508113904 | 7 | 273 | 0.0 | 0.0 | 0.00 | 0.05 | 0.00 | 87 | 1016.7 |
| 20260508113404 | 7 | 273 | 0.0 | 0.0 | 0.00 | 0.05 | 0.00 | 87 | 1016.7 |
| 20260508112404 | 7 | 273 | 0.0 | 0.0 | 0.00 | 0.05 | 0.00 | 87 | 1016.4 |
| 20260508111904 | 7 | 273 | 0.0 | 0.0 | 0.00 | 0.05 | 0.00 | 87 | 1016.4 |
| 20260508111405 | 7 | 273 | 0.0 | 0.0 | 0.00 | 0.05 | 0.00 | 87 | 1016.2 |
| 20260508110404 | 7 | 273 | 0.0 | 0.0 | 0.00 | 0.13 | 0.00 | 87 | 1016.2 |
| 20260508105405 | 7 | 273 | 0.0 | 0.0 | 0.00 | 0.23 | 0.00 | 86 | 1016.1 |
| 20260508104403 | 7 | 273 | 0.0 | 0.0 | 0.00 | 0.25 | 0.00 | 86 | 1015.7 |
| 20260508103904 | 7 | 273 | 0.0 | 0.0 | 0.00 | 0.28 | 0.00 | 86 | 1015.7 |
| 20260508102903 | 7 | 273 | 0.0 | 0.0 | 0.00 | 0.33 | 0.00 | 86 | 1015.3 |
| 20260508102404 | 7 | 273 | 0.0 | 0.0 | 0.00 | 0.36 | 0.00 | 86 | 1015.3 |
| 20260508101902 | 7 | 273 | 0.0 | 0.0 | 0.00 | 0.41 | 0.00 | 86 | 1015.3 |
| 20260508101402 | 7 | 273 | 0.0 | 0.0 | 0.00 | 0.43 | 0.00 | 86 | 1015.3 |
| 20260508100903 | 7 | 273 | 0.0 | 0.0 | 0.00 | 0.43 | 0.00 | 86 | 1015.3 |
| 20260508100403 | 7 | 273 | 0.0 | 0.0 | 0.00 | 0.43 | 0.00 | 86 | 1015.3 |
| 20260508095902 | 7 | 273 | 0.0 | 0.0 | 0.00 | 0.46 | 0.00 | 86 | 1015.3 |
| 20260508095403 | 7 | 273 | 0.0 | 0.0 | 0.00 | 0.48 | 0.00 | 86 | 1015.3 |
| 20260508094402 | 7 | 273 | 0.0 | 0.0 | 0.00 | 0.51 | 0.00 | 86 | 1015.1 |
| 20260508093903 | 7 | 273 | 0.0 | 0.0 | 0.00 | 0.56 | 0.00 | 86 | 1015.1 |
| 20260508093402 | 7 | 273 | 0.0 | 0.0 | 0.00 | 0.61 | 0.00 | 86 | 1015.1 |
| 20260508092903 | 7 | 273 | 0.0 | 0.0 | 0.00 | 0.76 | 0.00 | 86 | 1015.1 |
| 20260508092402 | 7 | 273 | 0.0 | 0.0 | 0.00 | 0.81 | 0.00 | 86 | 1015.1 |
| 20260508091903 | 7 | 273 | 0.0 | 0.0 | 0.00 | 0.81 | 0.00 | 86 | 1015.1 |
| 20260508090403 | 7 | 273 | 0.0 | 1.6 | 0.00 | 0.81 | 0.00 | 86 | 1015.1 |
| 20260508085902 | 7 | 273 | 0.0 | 0.0 | 0.00 | 0.81 | 0.00 | 86 | 1015.1 |
| 20260508085403 | 7 | 273 | 0.0 | 0.0 | 0.00 | 0.84 | 0.00 | 86 | 1015.1 |
| 20260508084903 | 8 | 273 | 0.0 | 0.0 | 0.00 | 0.89 | 0.00 | 86 | 1015.1 |
| 20260508084402 | 7 | 273 | 0.0 | 0.0 | 0.00 | 0.91 | 0.00 | 86 | 1015.0 |
| 20260508083904 | 8 | 273 | 0.0 | 1.6 | 0.00 | 0.91 | 0.00 | 86 | 1015.0 |
| 20260508083402 | 8 | 273 | 0.0 | 1.6 | 0.00 | 0.91 | 0.00 | 86 | 1015.0 |
| 20260508082903 | 8 | 273 | 0.0 | 1.6 | 0.00 | 0.91 | 0.00 | 86 | 1015.0 |
| 20260508082404 | 8 | 273 | 0.0 | 0.0 | 0.00 | 0.91 | 0.00 | 86 | 1015.0 |
| 20260508081903 | 8 | 273 | 0.0 | 0.0 | 0.00 | 0.91 | 0.00 | 86 | 1015.0 |
| 20260508081403 | 8 | 273 | 0.0 | 0.0 | 0.00 | 0.91 | 0.00 | 86 | 1015.2 |
| 20260508080903 | 8 | 273 | 0.0 | 0.0 | 0.00 | 0.91 | 0.00 | 86 | 1015.2 |
| 20260508080403 | 8 | 273 | 0.0 | 0.0 | 0.00 | 0.91 | 0.00 | 86 | 1015.2 |
| 20260508074903 | 8 | 273 | 0.0 | 0.0 | 0.00 | 0.97 | 0.00 | 86 | 1015.2 |
| 20260508074403 | 8 | 273 | 0.0 | 0.0 | 0.00 | 0.97 | 0.00 | 86 | 1015.2 |
| 20260508073904 | 8 | 273 | 0.0 | 0.0 | 0.00 | 0.97 | 0.00 | 86 | 1015.2 |
| 20260508073403 | 8 | 273 | 0.0 | 0.0 | 0.00 | 0.97 | 0.00 | 86 | 1015.2 |
| 20260508072902 | 8 | 273 | 0.0 | 0.0 | 0.00 | 0.97 | 0.00 | 85 | 1015.1 |
| 20260508072404 | 8 | 273 | 0.0 | 0.0 | 0.00 | 0.97 | 0.00 | 85 | 1015.1 |
| 20260508071903 | 8 | 273 | 0.0 | 0.0 | 0.00 | 0.97 | 0.00 | 86 | 1015.1 |
| 20260508071403 | 8 | 273 | 0.0 | 0.0 | 0.00 | 0.97 | 0.00 | 86 | 1015.3 |
| 20260508070902 | 8 | 273 | 0.0 | 0.0 | 0.00 | 0.97 | 0.00 | 86 | 1015.3 |
| 20260508070404 | 8 | 273 | 0.0 | 0.0 | 0.00 | 0.97 | 0.00 | 86 | 1015.3 |
| 20260508065903 | 8 | 273 | 0.0 | 1.6 | 0.00 | 0.97 | 0.00 | 85 | 1015.4 |
| 20260508065403 | 8 | 273 | 0.0 | 0.0 | 0.00 | 0.97 | 0.00 | 85 | 1015.4 |
| 20260508064904 | 8 | 273 | 0.0 | 0.0 | 0.00 | 0.97 | 0.00 | 85 | 1015.4 |
| 20260508064403 | 8 | 273 | 0.0 | 0.0 | 0.00 | 0.99 | 0.00 | 85 | 1015.4 |
| 20260508063903 | 9 | 273 | 0.0 | 1.6 | 0.00 | 0.99 | 0.00 | 85 | 1015.4 |
| 20260508063404 | 9 | 273 | 0.0 | 0.0 | 0.00 | 0.99 | 0.00 | 85 | 1015.4 |
| 20260508062902 | 9 | 273 | 0.0 | 0.0 | 0.00 | 0.99 | 0.00 | 85 | 1015.5 |
| 20260508062402 | 9 | 273 | 0.0 | 1.6 | 0.00 | 0.99 | 0.00 | 85 | 1015.7 |
| 20260508061904 | 9 | 273 | 0.0 | 0.0 | 0.00 | 0.99 | 0.00 | 85 | 1015.7 |
| 20260508060903 | 9 | 273 | 0.0 | 0.0 | 0.00 | 0.99 | 0.00 | 85 | 1015.6 |
| 20260508060404 | 9 | 273 | 0.0 | 0.0 | 0.00 | 0.99 | 0.00 | 85 | 1015.5 |
| 20260508055902 | 9 | 273 | 0.0 | 1.6 | 0.00 | 0.99 | 0.00 | 85 | 1015.5 |
| 20260508054403 | 10 | 273 | 0.0 | 1.6 | 0.00 | 1.45 | 0.00 | 85 | 1015.5 |
| 20260508053902 | 10 | 273 | 0.0 | 1.6 | 0.00 | 1.55 | 0.00 | 85 | 1015.5 |
| 20260508053403 | 10 | 273 | 0.0 | 0.0 | 0.00 | 1.55 | 0.00 | 85 | 1015.5 |
| 20260508052903 | 10 | 273 | 0.0 | 0.0 | 0.00 | 1.55 | 0.00 | 85 | 1015.2 |
| 20260508052403 | 10 | 273 | 0.0 | 1.6 | 0.00 | 1.55 | 0.00 | 85 | 1015.2 |
| 20260508051904 | 10 | 273 | 0.0 | 0.0 | 0.00 | 1.57 | 0.00 | 85 | 1015.3 |
| 20260508051403 | 10 | 273 | 0.0 | 0.0 | 0.00 | 1.85 | 0.00 | 85 | 1015.3 |
| 20260508050903 | 10 | 273 | 0.0 | 0.0 | 0.00 | 1.88 | 0.00 | 84 | 1015.3 |
| 20260508050402 | 10 | 273 | 0.0 | 3.2 | 0.00 | 1.91 | 0.00 | 84 | 1015.3 |
| 20260508045904 | 10 | 273 | 0.0 | 1.6 | 0.00 | 1.91 | 0.00 | 84 | 1015.4 |
| 20260508045403 | 10 | 273 | 0.0 | 1.6 | 0.00 | 1.91 | 0.00 | 85 | 1015.4 |
| 20260508044903 | 10 | 273 | 0.0 | 3.2 | 0.00 | 1.91 | 0.00 | 85 | 1015.4 |
| 20260508044404 | 10 | 273 | 0.0 | 1.6 | 0.00 | 1.96 | 0.00 | 85 | 1015.3 |
| 20260508043903 | 10 | 273 | 0.0 | 0.0 | 0.00 | 2.06 | 0.00 | 84 | 1015.3 |
| 20260508042403 | 10 | 273 | 0.0 | 0.0 | 0.00 | 2.18 | 0.00 | 84 | 1015.3 |
| 20260508041902 | 11 | 273 | 0.0 | 0.0 | 0.00 | 2.18 | 0.00 | 84 | 1015.3 |
| 20260508041404 | 11 | 273 | 0.0 | 0.0 | 0.00 | 2.18 | 0.00 | 83 | 1015.2 |
| 20260508040903 | 11 | 273 | 0.0 | 0.0 | 0.00 | 2.18 | 0.00 | 83 | 1015.2 |
| 20260508040403 | 11 | 273 | 0.0 | 0.0 | 0.00 | 2.21 | 0.00 | 83 | 1015.2 |
| 20260508035403 | 11 | 273 | 0.0 | 0.0 | 0.00 | 2.59 | 2.44 | 83 | 1015.0 |
| 20260508034903 | 11 | 273 | 0.0 | 0.0 | 0.00 | 2.62 | 2.44 | 83 | 1015.0 |
| 20260508034404 | 11 | 273 | 0.0 | 0.0 | 0.00 | 2.79 | 2.44 | 82 | 1015.0 |
| 20260508033903 | 11 | 273 | 0.0 | 0.0 | 0.00 | 2.87 | 2.44 | 82 | 1015.0 |
| 20260508032904 | 12 | 260 | 0.0 | 0.0 | 0.00 | 2.92 | 2.44 | 82 | 1015.0 |
| 20260508032403 | 12 | 243 | 0.0 | 0.0 | 0.00 | 2.92 | 2.44 | 81 | 1015.0 |
| 20260508031903 | 12 | 243 | 0.0 | 0.0 | 0.00 | 2.92 | 2.44 | 81 | 1014.8 |
| 20260508031404 | 12 | 243 | 0.0 | 1.6 | 0.00 | 2.92 | 2.44 | 81 | 1014.8 |
| 20260508030403 | 12 | 243 | 0.0 | 1.6 | 0.00 | 2.92 | 2.44 | 81 | 1014.8 |
| 20260508025904 | 12 | 243 | 0.0 | 1.6 | 0.00 | 2.92 | 2.44 | 81 | 1014.8 |
| 20260508024903 | 12 | 243 | 1.6 | 3.2 | 0.00 | 2.92 | 2.44 | 80 | 1014.8 |
| 20260508024405 | 12 | 243 | 1.6 | 4.8 | 0.00 | 2.95 | 2.44 | 81 | 1014.6 |
| 20260508023403 | 12 | 221 | 0.0 | 1.6 | 0.00 | 2.95 | 2.44 | 82 | 1014.6 |
| 20260508022904 | 12 | 221 | 1.6 | 3.2 | 0.00 | 2.95 | 2.44 | 82 | 1014.6 |
| 20260508022403 | 12 | 221 | 0.0 | 1.6 | 0.00 | 2.95 | 2.44 | 82 | 1014.6 |
| 20260508021903 | 12 | 221 | 0.0 | 1.6 | 0.00 | 2.95 | 2.44 | 81 | 1014.6 |
| 20260508020903 | 12 | 221 | 0.0 | 1.6 | 0.00 | 2.95 | 2.44 | 81 | 1014.6 |
| 20260508020403 | 13 | 221 | 0.0 | 0.0 | 0.00 | 2.95 | 2.44 | 81 | 1014.5 |
| 20260508015904 | 13 | 221 | 0.0 | 0.0 | 0.00 | 2.95 | 2.44 | 81 | 1014.5 |
| 20260508015403 | 13 | 221 | 0.0 | 1.6 | 0.00 | 2.95 | 2.44 | 81 | 1014.4 |
| 20260508014903 | 13 | 221 | 0.0 | 1.6 | 0.00 | 2.95 | 2.44 | 81 | 1014.4 |
| 20260508014404 | 13 | 221 | 0.0 | 0.0 | 0.00 | 2.95 | 2.44 | 81 | 1014.2 |
| 20260508013403 | 13 | 221 | 0.0 | 3.2 | 0.00 | 2.95 | 2.44 | 80 | 1014.0 |
| 20260508012905 | 13 | 214 | 1.6 | 4.8 | 0.00 | 2.95 | 2.44 | 80 | 1013.9 |
| 20260508011903 | 13 | 294 | 0.0 | 3.2 | 0.00 | 2.95 | 2.44 | 80 | 1013.9 |
| 20260508011404 | 13 | 294 | 0.0 | 1.6 | 0.00 | 2.95 | 2.44 | 79 | 1013.7 |
| 20260508010903 | 14 | 294 | 0.0 | 1.6 | 0.00 | 2.95 | 2.44 | 78 | 1013.7 |
| 20260508010403 | 14 | 294 | 0.0 | 0.0 | 0.00 | 2.95 | 2.44 | 79 | 1013.7 |
| 20260508005904 | 14 | 294 | 0.0 | 0.0 | 0.00 | 2.95 | 2.44 | 79 | 1013.5 |
| 20260508005403 | 14 | 294 | 0.0 | 0.0 | 0.00 | 2.95 | 2.44 | 79 | 1013.5 |
| 20260508004903 | 15 | 294 | 0.0 | 0.0 | 0.00 | 2.95 | 2.44 | 79 | 1013.5 |
| 20260508004404 | 15 | 294 | 0.0 | 0.0 | 0.00 | 2.95 | 2.44 | 79 | 1013.5 |
| 20260508003903 | 15 | 294 | 0.0 | 1.6 | 0.00 | 2.95 | 2.44 | 79 | 1013.5 |
| 20260508003403 | 15 | 294 | 0.0 | 1.6 | 0.00 | 2.95 | 2.44 | 79 | 1013.4 |
| 20260508002403 | 15 | 317 | 0.0 | 1.6 | 0.00 | 2.95 | 2.44 | 79 | 1013.4 |
| 20260508001404 | 15 | 317 | 1.6 | 3.2 | 0.00 | 2.97 | 2.44 | 79 | 1013.2 |
| 20260508000404 | 16 | 5 | 1.6 | 3.2 | 0.00 | 3.23 | 2.44 | 78 | 1013.2 |
| 20260507235404 | 16 | 5 | 0.0 | 1.6 | 0.00 | 3.25 | 2.44 | 76 | 1013.0 |
| 20260507234903 | 16 | 5 | 0.0 | 1.6 | 0.00 | 3.25 | 2.44 | 75 | 1012.9 |
| 20260507234404 | 16 | 5 | 0.0 | 0.0 | 0.00 | 3.25 | 2.44 | 75 | 1012.9 |
| 20260507233903 | 17 | 5 | 0.0 | 0.0 | 0.00 | 3.25 | 2.44 | 74 | 1012.9 |
| 20260507232905 | 17 | 5 | 0.0 | 0.0 | 0.00 | 3.25 | 2.44 | 73 | 1012.9 |
| 20260507232403 | 17 | 5 | 0.0 | 1.6 | 0.00 | 3.25 | 2.44 | 72 | 1012.9 |
| 20260507231903 | 18 | 5 | 0.0 | 1.6 | 0.00 | 3.25 | 2.44 | 71 | 1012.9 |
| 20260507231404 | 18 | 5 | 0.0 | 1.6 | 0.00 | 3.28 | 2.44 | 70 | 1012.8 |
| 20260507230903 | 18 | 5 | 1.6 | 3.2 | 0.00 | 3.30 | 2.44 | 70 | 1012.8 |
| 20260507225403 | 18 | 113 | 0.0 | 1.6 | 0.00 | 3.61 | 2.44 | 67 | 1012.7 |
| 20260507224904 | 18 | 113 | 0.0 | 1.6 | 0.00 | 3.63 | 2.44 | 66 | 1012.7 |
| 20260507224404 | 18 | 113 | 0.0 | 1.6 | 0.00 | 3.66 | 2.44 | 65 | 1012.7 |
| 20260507223904 | 19 | 113 | 0.0 | 3.2 | 0.00 | 3.78 | 2.44 | 64 | 1012.7 |
| 20260507223404 | 19 | 22 | 1.6 | 3.2 | 0.00 | 3.86 | 2.44 | 66 | 1012.7 |
| 20260507222904 | 19 | 23 | 1.6 | 3.2 | 0.00 | 3.89 | 2.44 | 66 | 1012.7 |
| 20260507221403 | 19 | 156 | 0.0 | 3.2 | 0.00 | 3.96 | 2.44 | 66 | 1012.8 |
| 20260507220904 | 19 | 73 | 1.6 | 3.2 | 0.00 | 3.99 | 2.44 | 65 | 1012.8 |
| 20260507220404 | 19 | 146 | 0.0 | 4.8 | 0.00 | 3.99 | 2.44 | 64 | 1012.8 |
| 20260507215904 | 19 | 101 | 1.6 | 4.8 | 0.00 | 4.01 | 2.44 | 66 | 1012.7 |
| 20260507215405 | 19 | 72 | 1.6 | 8.0 | 0.00 | 4.01 | 2.44 | 66 | 1012.7 |
| 20260507214903 | 19 | 306 | 0.0 | 1.6 | 0.00 | 4.01 | 2.44 | 70 | 1012.7 |
| 20260507214404 | 19 | 306 | 0.0 | 0.0 | 0.00 | 4.01 | 2.44 | 69 | 1012.7 |
| 20260507213904 | 18 | 306 | 0.0 | 1.6 | 0.00 | 4.01 | 2.44 | 67 | 1012.7 |
| 20260507212905 | 19 | 36 | 0.0 | 1.6 | 0.00 | 4.01 | 2.44 | 66 | 1012.7 |
| 20260507211903 | 20 | 44 | 1.6 | 4.8 | 0.00 | 4.01 | 2.44 | 64 | 1012.5 |
| 20260507211403 | 19 | 11 | 0.0 | 1.6 | 0.00 | 4.01 | 2.44 | 64 | 1012.4 |
| 20260507210904 | 19 | 11 | 0.0 | 1.6 | 0.00 | 4.01 | 2.44 | 64 | 1012.4 |
| 20260507210404 | 19 | 11 | 0.0 | 3.2 | 0.00 | 4.01 | 2.44 | 65 | 1012.4 |
| 20260507205904 | 19 | 11 | 1.6 | 3.2 | 0.00 | 4.01 | 2.44 | 65 | 1012.4 |
| 20260507204904 | 19 | 28 | 1.6 | 4.8 | 0.00 | 4.01 | 2.44 | 63 | 1012.4 |
| 20260507204403 | 19 | 64 | 3.2 | 4.8 | 0.00 | 4.01 | 2.44 | 64 | 1012.1 |
| 20260507203905 | 19 | 42 | 3.2 | 4.8 | 0.00 | 4.04 | 2.44 | 64 | 1012.1 |
| 20260507203403 | 20 | 33 | 3.2 | 4.8 | 0.00 | 4.06 | 2.44 | 61 | 1012.1 |
| 20260507202903 | 20 | 35 | 1.6 | 4.8 | 0.00 | 4.19 | 2.44 | 62 | 1012.2 |
| 20260507202404 | 19 | 78 | 3.2 | 4.8 | 0.00 | 4.19 | 2.44 | 66 | 1012.2 |
| 20260507201904 | 18 | 68 | 1.6 | 4.8 | 0.00 | 4.19 | 2.44 | 62 | 1012.2 |
| 20260507201403 | 18 | 78 | 1.6 | 4.8 | 0.00 | 4.19 | 2.44 | 65 | 1012.4 |
| 20260507200905 | 18 | 9 | 1.6 | 3.2 | 0.00 | 4.27 | 2.44 | 66 | 1012.4 |
| 20260507200403 | 18 | 61 | 1.6 | 3.2 | 0.00 | 4.27 | 2.44 | 66 | 1012.4 |
| 20260507195904 | 18 | 61 | 1.6 | 3.2 | 0.00 | 4.29 | 2.44 | 66 | 1012.7 |
| 20260507195403 | 18 | 61 | 0.0 | 1.6 | 0.00 | 4.29 | 2.44 | 66 | 1012.7 |
| 20260507193903 | 18 | 11 | 1.6 | 3.2 | 0.00 | 4.45 | 2.44 | 66 | 1012.7 |
| 20260507192904 | 19 | 12 | 1.6 | 3.2 | 0.00 | 5.51 | 2.44 | 61 | 1012.9 |
| 20260507191905 | 20 | 27 | 1.6 | 4.8 | 0.00 | 5.54 | 2.44 | 61 | 1012.9 |
| 20260507191403 | 20 | 12 | 1.6 | 4.8 | 0.00 | 5.54 | 2.44 | 60 | 1012.9 |
| 20260507190904 | 20 | 50 | 4.8 | 8.0 | 0.00 | 5.54 | 2.44 | 63 | 1012.9 |
| 20260507190405 | 20 | 15 | 1.6 | 4.8 | 0.00 | 5.54 | 2.44 | 64 | 1012.9 |
| 20260507185904 | 19 | 26 | 3.2 | 9.7 | 0.00 | 5.54 | 2.44 | 62 | 1012.9 |
| 20260507185403 | 19 | 13 | 1.6 | 8.0 | 0.00 | 5.54 | 2.44 | 66 | 1012.9 |
| 20260507184905 | 19 | 9 | 3.2 | 4.8 | 0.00 | 5.54 | 2.44 | 65 | 1012.9 |
| 20260507184403 | 19 | 276 | 3.2 | 4.8 | 0.00 | 5.54 | 2.44 | 68 | 1012.9 |
| 20260507183904 | 18 | 43 | 3.2 | 4.8 | 0.00 | 5.54 | 2.44 | 68 | 1012.9 |
| 20260507183405 | 18 | 355 | 1.6 | 4.8 | 0.00 | 5.54 | 2.44 | 65 | 1012.9 |
| 20260507182903 | 18 | 0 | 3.2 | 4.8 | 0.00 | 5.54 | 2.44 | 69 | 1012.9 |